Location: Cahas Mountain Overlook
(37.0833°N, 80.1000°W)
Time: 17:39:19
(UTC-05:00)

ARIANE 6 FM1 Upper Stage - Pass Details

Date: 24 January 2026
Orbit: 522 x 609 km, 62.0° (Epoch: 15 February)

Event Time Altitude Azimuth Distance (km) Brightness Sun altitude
Rises 18:55:09 0° 238° (WSW) 2,715 7.6 -15.7°
Reaches altitude 10° 18:57:36 10° 250° (WSW) 1,809 6.6 -16.2°
Maximum altitude 19:01:09 29° 311° (NW) 1,009 4.3 -16.9°
Enters shadow 19:04:34 11° 12° (NNE) 1,747 4.9 -17.5°
